Trieste, Italy

2:25 AM CEST on September 29, 2016 (GMT +0200)
Trieste

Weather History for LIVT - November, 2012

Change the Weather History Date:

Thursday, November 8, 2012

  Actual Average Record
Temperature  
Mean Temperature 52 °F -  
Max Temperature 61 °F 57 °F 69 °F (2011)
Min Temperature 44 °F 49 °F 42 °F (2002)
Degree Days  
Heating Degree Days 12    
Growing Degree Days 2 (Base 50)    
Moisture  
Dew Point 42 °F    
Average Humidity 71    
Maximum Humidity 87    
Minimum Humidity 42    
Precipitation  
Precipitation 0.00 in - - ()
Sea Level Pressure  
Sea Level Pressure 30.25 in    
Wind  
Wind Speed 2 mph ()    
Max Wind Speed 8 mph    
Max Gust Speed -    
Visibility 12.0 miles    
Events      
Averages and records for this station are not official NWS values.
T = Trace of Precipitation, MM = Missing Value Source: Averaged Metar Reports

Daily Weather History Graph

Daily Weather History Graph

Search for Another Location

Airport or City:

Trip Planner

Search our weather history database for the weather conditions in past years. The results will help you decide how hot, cold, wet, or windy it might be!

Date:

Astronomy

Nov. 08, 2012 Rise Set
Actual Time 6:55 AM CET 4:41 PM CET
Civil Twilight 6:23 AM CET 5:13 PM CET
Nautical Twilight 5:47 AM CET 5:49 PM CET
Astronomical Twilight 5:13 AM CET 6:23 PM CET
Moon 12:13 AM CET (11/8) 1:30 PM CET (11/8)
Length of Visible Light 10h 50m
Length of Day
9h 46m
Waning Crescent, 35% of the Moon is Illuminated
Nov 8
Waning Crescent
Nov 13
New
Nov 20
First Quarter
Nov 28
Full
Dec 6
Last Quarter

Hourly Weather History & Observations

Time (CET) Temp. Dew Point Humidity Pressure Visibility Wind Dir Wind Speed Gust Speed Precip Events Conditions
12:55 AM 46.4 °F 41.0 °F 81% 30.36 in - ENE 2.3 mph - N/A   Clear
1:00 AM 46 °F 41 °F 76% 30.37 in 12 mi ENE 2.3 mph - -  
1:55 AM 46.4 °F 41.0 °F 81% 30.33 in - East 1.2 mph - N/A   Clear
2:55 AM 46.4 °F 39.2 °F 76% 30.33 in - ENE 1.2 mph - N/A   Clear
3:55 AM 46.4 °F 39.2 °F 76% 30.30 in - ENE 1.2 mph - N/A   Clear
4:55 AM 46.4 °F 39.2 °F 76% 30.33 in - ENE 2.3 mph - N/A   Clear
5:55 AM 46.4 °F 37.4 °F 71% 30.30 in - ENE 2.3 mph - N/A   Clear
6:55 AM 44.6 °F 39.2 °F 81% 30.30 in - ENE 2.3 mph - N/A   Clear
7:00 AM 45 °F 38 °F 70% 30.31 in 12 mi ENE 2.3 mph - -  
7:55 AM 44.6 °F 39.2 °F 81% 30.30 in - ENE 2.3 mph - N/A   Clear
8:55 AM 50.0 °F 41.0 °F 71% 30.30 in - Calm Calm - N/A   Clear
9:55 AM 57.2 °F 42.8 °F 59% 30.30 in - Calm Calm - N/A   Clear
10:55 AM 60.8 °F 42.8 °F 52% 30.30 in - Calm Calm - N/A   Clear
11:55 AM 60.8 °F 42.8 °F 52% 30.27 in - North - - N/A   Clear
12:55 PM 60.8 °F 42.8 °F 52% 30.24 in - WNW 1.2 mph - N/A   Clear
1:00 PM 60 °F 43 °F 42% 30.26 in 12 mi WNW 1.2 mph - -   Clear
1:55 PM 59.0 °F 44.6 °F 59% 30.24 in - NW 2.3 mph - N/A   Clear
2:55 PM 59.0 °F 44.6 °F 59% 30.21 in - Calm Calm - N/A   Clear
3:55 PM 57.2 °F 46.4 °F 67% 30.18 in - NW 1.2 mph - N/A   Clear
4:55 PM 53.6 °F 46.4 °F 77% 30.15 in - ENE 2.3 mph - N/A   Clear
5:55 PM 51.8 °F 46.4 °F 82% 30.15 in - ENE 2.3 mph - N/A   Clear
6:55 PM 50.0 °F 46.4 °F 87% 30.15 in - ENE 3.5 mph - N/A   Clear
7:00 PM 51 °F 47 °F 81% 30.17 in 12 mi ENE 3.5 mph - -   Partly Cloudy
8:55 PM 50.0 °F 41.0 °F 71% 30.15 in - ENE 8.1 mph - N/A   Clear
9:55 PM 48.2 °F 41.0 °F 76% 30.15 in - ENE 6.9 mph - N/A   Clear
10:55 PM 50.0 °F 42.8 °F 76% 30.12 in - ENE 5.8 mph - N/A   Clear
11:55 PM 50.0 °F 44.6 °F 82% 30.12 in - East 3.5 mph - N/A   Clear